Skip Page Navigation
NASA JPL Caltech
NASA Logo - Jet Propulsion Laboratory + View the NASA Portal
+ Center for Near-Earth Object Studies
JPL Home Earth Solar System Stars & Galaxies Technology
JPL Solar System Dynamics
BODIES ORBITS EPHEMERIDES TOOLS PHYSICAL DATA DISCOVERY FAQ SITE MAP
IMPORTANT: The SSD Announcement email list is now available. Major changes are coming in the near future, including possible hostname and/or URL changes. To be notified of such changes, subscribe to this email list.

Please visit this page for more details.


JPL Small-Body Database Browser
Search: [ help ]  
35502 (1998 FP41)
Classification: Main-belt Asteroid          SPK-ID: 2035502
Ephemeris | Orbit Diagram | Orbital Elements | Mission Design | Physical Parameters | Discovery Circumstances | Close-Approach Data ]

[ show orbit diagram ]
Orbital Elements at Epoch 2458600.5 (2019-Apr-27.0) TDB
Reference: JPL 25 (heliocentric ecliptic J2000)
 Element Value Uncertainty (1-sigma)   Units 
e .1179943675338106 4.1074e-08  
a 2.595212251918214 1.1872e-08 au
q 2.288991823637128 1.0595e-07 au
i 1.556086594545152 4.5518e-06 deg
node 332.9600342244307 0.00015043 deg
peri 65.24047587068411 0.00015158 deg
M 148.8060940538491 2.0668e-05 deg
tp 2457969.286952227858
(2017-Aug-03.78695223)
8.5732e-05 TDB
period 1527.065800919013
4.18
1.0478e-05
2.869e-08
d
yr
n .2357462263796008 1.6176e-09 deg/d
Q 2.901432680199301 1.3273e-08 au
  Orbit Determination Parameters
   # obs. used (total)      1524  
   data-arc span      15400 days (42.16 yr)  
   first obs. used      1977-03-12  
   last obs. used      2019-05-11  
   planetary ephem.      DE431  
   SB-pert. ephem.      SB431-N16  
   condition code      0  
   norm. resid. RMS      .52629  
   source      ORB  
   producer      Otto Matic  
   solution date      2019-May-30 03:54:31  

Additional Information
 Earth MOID = 1.29629 au 
 Jupiter MOID = 2.48836 au 
 T_jup = 3.407 
[ show covariance matrix ]

Ephemeris | Orbit Diagram | Orbital Elements | Mission Design | Physical Parameters | Discovery Circumstances | Close-Approach Data ]

Physical Parameter Table
Parameter Symbol Value Units Sigma Reference Notes
absolute magnitude H 14.3   n/a MPO385040  
diameter diameter 4.107 km 0.140 urn:nasa:pds:neowise_diameters_albedos::2.0[mainbelt] (http://adsabs.harvard.edu/abs/2011ApJ...741...68M)  
geometric albedo albedo 0.219   0.041 urn:nasa:pds:neowise_diameters_albedos::2.0[mainbelt] (http://adsabs.harvard.edu/abs/2011ApJ...741...68M)  

35502 (1998 FP41)          Discovered 1998-Mar-20 by LINEAR at Socorro
Reference: 20020227/Numbers.arcLast Updated: 2004-04-19

[ show close-approach data ]
Alternate Designations
 1998 FP41 = 1977 EF5 = 2000 SJ10 
Ephemeris | Orbit Diagram | Orbital Elements | Mission Design | Physical Parameters | Discovery Circumstances | Close-Approach Data ]
ABOUT SSD CREDITS/AWARDS PRIVACY/COPYRIGHT GLOSSARY LINKS
FirstGov 2019-Oct-20 15:14 UT
(server date/time)  
NASA Home Page
Site Manager:   Ryan S. Park
Webmaster  Alan B. Chamberlin